This is the latest recevied weather packets stored in our database for station/object VR2OT-10. If no packets are shown the sender has not sent any weather packets the latest 10 day(s).
| Time | Temp. | Humidity | Pressure | Rain* | Wind** | Luminosity | Snow |
|---|---|---|---|---|---|---|---|
| 1787739034 | 27.22° C | 83% | 1002.2 hPa | - | 2.68 m/s, 90° | - | - |
| 1787738132 | 27.78° C | 82% | 1002.1 hPa | - | 2.68 m/s, 135° | - | - |
| 1787737234 | 27.78° C | 80% | 1002.2 hPa | - | 2.68 m/s, 135° | - | - |
| 1787736333 | 27.78° C | 84% | 1002.3 hPa | - | 1.34 m/s, 90° | - | - |
| 1787733633 | 27.78° C | 84% | 1001.8 hPa | - | 3.58 m/s, 135° | - | - |
| 1787732732 | 27.22° C | 84% | 1002.2 hPa | - | 0.89 m/s, 135° | - | - |
| 1787731834 | 27.22° C | 83% | 1002.2 hPa | - | 0.45 m/s, 90° | - | - |
| 1787730933 | 27.22° C | 86% | 1002.2 hPa | - | 1.79 m/s, 135° | - | - |
| 1787730031 | 27.22° C | 83% | 1002.3 hPa | - | 1.34 m/s, 90° | - | - |
| 1787729133 | 27.22° C | 83% | 1002.3 hPa | - | 0.45 m/s, 225° | - | - |
| 1787728234 | 27.22° C | 84% | 1002.3 hPa | - | 1.34 m/s, 180° | - | - |
| 1787727332 | 26.67° C | 90% | 1002.8 hPa | - | 3.13 m/s, 180° | - | - |
| 1787726434 | 26.11° C | 89% | 1003.2 hPa | - | 2.24 m/s, 180° | - | - |
| 1787725533 | 27.22° C | 85% | 1003.2 hPa | - | 0.89 m/s, ° | - | - |
| 1787724631 | 26.67° C | 89% | 1003.3 hPa | - | 2.24 m/s, 180° | - | - |
| 1787723732 | 27.22° C | 87% | 1003.3 hPa | - | 1.79 m/s, 135° | - | - |
| 1787721932 | 26.67° C | 83% | 1003.5 hPa | - | 2.24 m/s, 135° | - | - |
| 1787721034 | 26.67° C | 82% | 1003.6 hPa | - | 1.79 m/s, 135° | - | - |
| 1787719231 | 27.78° C | 86% | 1003.7 hPa | - | 0.45 m/s, 90° | - | - |
| 1787718332 | 27.78° C | 83% | 1004.2 hPa | - | 1.79 m/s, 180° | - | - |
| 1787716531 | 28.33° C | 88% | 1004.2 hPa | - | 0.89 m/s, 270° | - | - |
| 1787715634 | 28.89° C | 87% | 1004.2 hPa | - | 0.45 m/s, 315° | - | - |
| 1787714733 | 27.78° C | 91% | 1004.2 hPa | - | 1.34 m/s, 315° | - | - |
| 1787713831 | 27.22° C | 89% | 1004.5 hPa | - | 1.79 m/s, 315° | - | - |
| 1787712933 | 28.89° C | 83% | 1004.7 hPa | - | 1.34 m/s, 315° | - | - |
* Rain since midnight (hover to see other rain measurements)
** Current wind speed in m/s (hover to see current wind gust speed)